Temp
10 10 10 9 8 7 7 7 6 5 5 3 2 -1 -2 -2 -3 -3 -4 -4 -5 -6 -7 -7 -7 -7 -8 -7 -7 -7 -8 -8 -8 -8 -8 -7 -7 -7 -6 -6 -6 -6 -6 -6
10 10 9 8 7 7 7 7 6 5 3 2 1 -2 -3 -3 -4 -4 -5 -6 -6 -7 -7 -7 -6 -6 -6 -7 -7 -8 -8 -8 -8 -8 -9 -8 -8 -8 -8 -7 -7 -7 -7 -6
9 8 8 7 7 7 6 6 5 4 2 1 -1 -3 -4 -4 -5 -6 -7 -7 -7 -7 -7 -6 -6 -7 -8 -8 -9 -9 -9 -9 -9 -9 -9 -9 -8 -8 -7 -8 -8 -7 -7 -7
8 7 6 6 6 6 6 5 4 3 1 0 -1 -2 -4 -5 -6 -6 -6 -6 -7 -6 -6 -7 -7 -7 -8 -9 -10 -10 -10 -10 -9 -9 -9 -9 -9 -9 -9 -9 -8 -8 -8 -8
6 6 6 5 4 4 4 4 4 3 1 -0 -2 -2 -6 -6 -6 -6 -7 -7 -7 -7 -8 -8 -8 -9 -9 -9 -9 -10 -10 -10 -10 -10 -10 -10 -10 -10 -9 -9 -8 -8 -8 -8
6 5 5 4 3 3 3 3 4 2 1 -2 -2 -3 -9 -7 -9 -8 -8 -8 -9 -9 -9 -8 -8 -9 -9 -9 -9 -9 -10 -10 -10 -10 -9 -9 -9 -9 -9 -8 -9 -8 -8 -8
4 4 4 4 4 2 2 2 1 -0 -2 -1 -3 -3 -8 -8 -9 -9 -9 -9 -9 -9 -8 -8 -9 -9 -9 -9 -9 -9 -9 -9 -9 -9 -9 -9 -9 -9 -9 -9 -9 -9 -9 -8
4 3 4 3 2 0 -0 -1 -1 -3 -5 -4 -4 -6 -7 -8 -9 -7 -8 -8 -9 -9 -9 -9 -9 -9 -9 -9 -9 -9 -9 -9 -9 -9 -9 -9 -9 -9 -9 -9 -10 -10 -10 -10
3 2 1 1 0 -1 -1 -3 -4 -5 -6 -8 -6 -6 -7 -8 -7 -8 -9 -8 -8 -9 -10 -10 -10 -10 -9 -10 -9 -10 -10 -10 -10 -10 -10 -10 -10 -10 -9 -9 -10 -10 -10 -10
2 1 1 0 -1 -2 -2 -4 -4 -5 -11 -10 -8 -7 -8 -8 -10 -9 -9 -9 -9 -10 -10 -10 -9 -9 -9 -10 -10 -10 -11 -10 -10 -10 -10 -10 -10 -10 -11 -10 -10 -10 -10 -11
1 -0 1 -0 -1 -3 -4 -5 -6 -7 -8 -11 -12 -8 -9 -9 -10 -10 -10 -10 -10 -10 -10 -10 -9 -9 -10 -11 -11 -11 -10 -10 -10 -10 -10 -10 -10 -10 -10 -10 -10 -10 -10 -10
1 0 -0 -1 -2 -4 -6 -6 -8 -8 -8 -9 -10 -10 -8 -10 -10 -11 -10 -10 -10 -10 -10 -9 -10 -10 -11 -11 -10 -10 -9 -9 -9 -9 -9 -9 -9 -9 -9 -9 -10 -10 -10 -10
0 -0 -1 -2 -4 -6 -6 -7 -8 -9 -10 -10 -12 -10 -9 -10 -10 -9 -10 -10 -10 -10 -9 -9 -10 -11 -11 -10 -10 -9 -9 -9 -10 -10 -10 -9 -9 -9 -9 -9 -9 -9 -9 -10
0 -0 -2 -3 -4 -6 -6 -7 -8 -9 -11 -11 -11 -11 -10 -10 -11 -10 -10 -10 -10 -10 -10 -10 -10 -10 -10 -10 -9 -9 -9 -10 -10 -9 -10 -9 -9 -9 -8 -8 -8 -8 -8 -8
-0 -1 -2 -3 -4 -6 -7 -8 -8 -9 -11 -11 -11 -11 -11 -12 -12 -11 -11 -11 -10 -10 -10 -10 -11 -10 -9 -9 -9 -9 -9 -10 -9 -9 -9 -9 -9 -9 -9 -9 -9 -9 -9 -9
-0 -1 -2 -3 -4 -6 -9 -9 -8 -9 -10 -11 -10 -10 -12 -12 -10 -10 -11 -10 -11 -11 -10 -11 -10 -9 -9 -9 -9 -10 -9 -9 -9 -8 -8 -8 -9 -9 -9 -8 -8 -7 -7 -7
-1 -2 -3 -5 -6 -7 -9 -9 -9 -9 -10 -11 -11 -12 -12 -10 -10 -10 -11 -11 -11 -10 -11 -11 -10 -9 -8 -9 -9 -9 -8 -8 -7 -7 -7 -7 -7 -7 -7 -7 -7 -7 -6 -6
-2 -3 -4 -5 -6 -11 -9 -9 -10 -10 -9 -10 -11 -12 -12 -11 -11 -10 -11 -11 -10 -11 -11 -10 -9 -9 -8 -8 -9 -7 -8 -7 -7 -7 -7 -7 -7 -7 -7 -7 -6 -6 -4 -3
-2 -3 -5 -6 -7 -7 -9 -9 -10 -11 -9 -10 -11 -10 -11 -11 -10 -9 -9 -10 -10 -10 -11 -10 -9 -9 -8 -8 -7 -7 -7 -7 -7 -7 -7 -7 -6 -6 -6 -5 -6 -4 -4 -4
-3 -4 -5 -6 -7 -9 -8 -9 -10 -10 -10 -11 -11 -11 -11 -10 -11 -10 -10 -10 -10 -10 -10 -9 -8 -8 -8 -8 -7 -7 -6 -7 -6 -6 -6 -6 -6 -6 -6 -7 -5 -4 -4 -4
-3 -4 -5 -7 -7 -8 -9 -10 -11 -10 -11 -10 -11 -11 -11 -11 -12 -11 -10 -9 -10 -9 -10 -8 -8 -8 -8 -8 -7 -6 -6 -6 -6 -6 -6 -6 -5 -6 -6 -6 -5 -4 -4 -4
-4 -5 -6 -7 -8 -9 -9 -10 -11 -11 -10 -11 -10 -10 -11 -11 -10 -10 -10 -9 -9 -9 -8 -7 -7 -7 -7 -7 -7 -6 -6 -6 -5 -5 -5 -4 -4 -5 -4 -4 -4 -3 -3 -3
-4 -5 -6 -6 -6 -8 -9 -10 -11 -11 -11 -10 -10 -10 -11 -11 -10 -10 -9 -9 -9 -9 -8 -7 -7 -6 -7 -7 -6 -6 -6 -5 -5 -4 -4 -4 -4 -4 -3 -4 -4 -4 -4 -4
-4 -5 -6 -7 -7 -8 -9 -10 -11 -10 -10 -10 -10 -10 -11 -11 -10 -9 -9 -9 -8 -9 -8 -7 -6 -5 -6 -5 -6 -6 -5 -4 -4 -4 -4 -3 -4 -4 -5 -5 -4 -5 -4 -4
-4 -5 -6 -6 -8 -8 -9 -10 -10 -10 -10 -10 -10 -10 -11 -10 -10 -9 -9 -9 -8 -8 -8 -7 -6 -5 -5 -5 -5 -6 -5 -4 -4 -4 -3 -2 -3 -3 -3 -3 -3 -3 -4 -4
-4 -5 -6 -7 -8 -9 -10 -10 -10 -10 -10 -11 -10 -10 -11 -10 -10 -9 -9 -9 -9 -8 -7 -6 -6 -5 -5 -5 -5 -5 -4 -5 -4 -3 -3 -3 -3 -3 -2 -3 -3 -3 -3 -3
Height
3183 3183 3182 3181 3180 3179 3177 3174 3170 3168 3162 3157 3151 3146 3142 3142 3138 3135 3133 3130 3126 3122 3118 3113 3106 3101 3094 3090 3083 3078 3071 3067 3062 3056 3051 3047 3042 3038 3037 3034 3029 3026 3025 3022
3183 3180 3181 3180 3180 3178 3175 3171 3168 3164 3162 3157 3151 3144 3140 3138 3135 3131 3129 3126 3121 3115 3109 3104 3098 3093 3087 3080 3074 3068 3063 3059 3054 3048 3042 3036 3031 3027 3025 3023 3020 3018 3016 3014
3182 3182 3181 3180 3179 3177 3174 3171 3167 3162 3153 3148 3148 3144 3139 3135 3132 3130 3126 3122 3117 3108 3100 3093 3087 3081 3073 3067 3060 3055 3051 3046 3043 3038 3033 3028 3024 3019 3015 3013 3010 3009 3006 3004
3184 3182 3182 3180 3178 3175 3169 3165 3159 3152 3149 3146 3144 3142 3138 3131 3131 3128 3123 3117 3110 3102 3094 3088 3079 3071 3065 3058 3051 3046 3041 3037 3033 3028 3023 3018 3013 3009 3006 3002 2999 2997 2994 2992
3186 3182 3180 3178 3175 3171 3169 3162 3154 3148 3146 3147 3145 3145 3135 3131 3130 3124 3120 3114 3107 3101 3091 3083 3074 3067 3060 3052 3046 3040 3034 3029 3025 3020 3015 3010 3004 3000 2995 2991 2988 2985 2983 2980
3185 3183 3181 3177 3174 3170 3164 3160 3147 3141 3142 3142 3140 3142 3137 3132 3130 3124 3119 3112 3103 3093 3084 3078 3072 3063 3055 3047 3041 3034 3027 3021 3016 3010 3005 2999 2994 2988 2983 2980 2975 2972 2969 2967
3185 3181 3179 3177 3174 3168 3163 3155 3147 3145 3142 3142 3140 3139 3135 3134 3130 3125 3117 3109 3102 3094 3084 3075 3067 3058 3049 3042 3036 3029 3021 3013 3007 3000 2995 2989 2983 2977 2972 2967 2963 2959 2955 2952
3184 3179 3177 3175 3173 3166 3160 3158 3163 3160 3153 3142 3137 3137 3137 3134 3130 3126 3117 3107 3099 3090 3081 3072 3063 3054 3045 3036 3028 3019 3011 3003 2996 2989 2982 2976 2970 2963 2958 2953 2948 2944 2940 2937
3182 3178 3175 3174 3172 3172 3166 3164 3166 3161 3151 3146 3139 3137 3133 3130 3125 3120 3111 3101 3093 3084 3075 3067 3057 3048 3039 3029 3019 3009 2999 2990 2982 2975 2968 2961 2955 2949 2942 2936 2931 2927 2924 2921
3187 3182 3178 3178 3175 3173 3171 3172 3168 3167 3162 3154 3139 3138 3134 3127 3121 3115 3106 3098 3088 3079 3070 3061 3051 3040 3030 3019 3008 2997 2987 2976 2967 2958 2951 2943 2936 2931 2925 2919 2914 2910 2907 2904
3186 3186 3183 3178 3175 3173 3171 3168 3168 3169 3169 3166 3153 3138 3133 3129 3122 3114 3105 3097 3087 3076 3066 3055 3043 3031 3020 3008 2997 2985 2975 2965 2955 2947 2939 2931 2924 2918 2912 2907 2902 2897 2893 2891
3186 3181 3179 3177 3172 3169 3168 3167 3164 3165 3166 3163 3156 3138 3134 3129 3121 3113 3102 3092 3082 3072 3060 3048 3035 3023 3011 2997 2986 2976 2965 2955 2946 2937 2928 2920 2913 2907 2901 2895 2890 2886 2882 2880
3185 3181 3178 3174 3173 3171 3168 3166 3165 3164 3161 3159 3157 3139 3133 3126 3118 3109 3099 3088 3078 3066 3054 3043 3030 3016 3002 2990 2979 2968 2957 2947 2937 2927 2918 2910 2903 2897 2891 2885 2880 2876 2872 2869
3184 3181 3181 3182 3177 3173 3171 3168 3164 3161 3161 3159 3155 3138 3132 3122 3113 3104 3095 3085 3073 3062 3050 3036 3023 3008 2996 2985 2973 2961 2951 2940 2930 2921 2912 2904 2895 2889 2883 2878 2873 2869 2864 2861
3183 3180 3178 3176 3173 3170 3169 3166 3164 3161 3159 3156 3148 3140 3132 3122 3112 3103 3094 3082 3070 3057 3044 3031 3017 3004 2993 2981 2969 2957 2946 2935 2926 2917 2907 2899 2891 2884 2878 2872 2866 2862 2858 2856
3181 3178 3175 3172 3170 3168 3165 3163 3163 3161 3157 3152 3144 3138 3131 3121 3112 3103 3091 3079 3066 3053 3041 3028 3014 3002 2990 2977 2965 2953 2940 2932 2924 2915 2905 2896 2887 2878 2872 2865 2858 2853 2848 2845
3180 3177 3172 3168 3167 3163 3164 3163 3163 3159 3156 3150 3142 3137 3127 3116 3107 3098 3087 3076 3064 3052 3040 3025 3011 2999 2988 2976 2965 2953 2942 2933 2923 2913 2902 2891 2881 2874 2868 2863 2856 2850 2843 2840
3178 3175 3173 3170 3166 3163 3161 3160 3158 3157 3152 3148 3142 3135 3129 3119 3109 3100 3088 3078 3066 3053 3039 3023 3011 2999 2989 2980 2968 2958 2947 2933 2921 2910 2901 2892 2883 2876 2871 2864 2857 2851 2846 2843
3177 3175 3172 3170 3167 3164 3159 3158 3156 3149 3147 3145 3139 3131 3124 3115 3105 3100 3091 3080 3066 3053 3040 3026 3013 3002 2993 2983 2971 2960 2947 2936 2923 2913 2904 2895 2887 2880 2875 2869 2864 2860 2857 2855
3176 3175 3174 3171 3169 3165 3161 3160 3157 3149 3143 3141 3137 3129 3120 3110 3097 3089 3083 3075 3064 3053 3040 3026 3014 3005 2996 2986 2974 2963 2950 2938 2928 2918 2909 2901 2893 2887 2880 2877 2876 2870 2869 2867
3174 3172 3172 3169 3168 3164 3162 3161 3156 3151 3149 3140 3134 3130 3120 3112 3108 3095 3085 3074 3066 3053 3039 3028 3019 3007 2998 2987 2978 2967 2955 2943 2935 2926 2918 2910 2902 2895 2891 2888 2886 2884 2880 2877
3172 3170 3168 3166 3164 3161 3157 3155 3155 3152 3145 3137 3133 3128 3120 3114 3105 3096 3087 3074 3062 3050 3038 3029 3020 3011 3001 2992 2982 2972 2961 2951 2942 2934 2927 2920 2913 2908 2907 2903 2900 2898 2896 2894
3171 3171 3170 3170 3165 3161 3157 3153 3150 3146 3142 3138 3132 3127 3119 3111 3104 3095 3085 3073 3063 3051 3040 3031 3022 3014 3006 2997 2988 2977 2967 2958 2951 2945 2939 2933 2928 2926 2923 2920 2917 2914 2913 2911
3169 3167 3166 3165 3163 3160 3157 3153 3147 3143 3140 3138 3132 3125 3119 3112 3103 3094 3085 3073 3063 3052 3040 3032 3025 3018 3010 3003 2995 2986 2977 2969 2965 2960 2956 2950 2946 2943 2940 2936 2933 2930 2928 2926
3167 3164 3162 3161 3160 3158 3155 3151 3146 3143 3139 3135 3131 3123 3116 3107 3102 3094 3084 3073 3064 3053 3044 3035 3028 3021 3015 3009 3002 2994 2986 2981 2977 2973 2970 2965 2962 2958 2954 2950 2947 2945 2942 2943
3163 3162 3160 3157 3156 3155 3154 3150 3145 3140 3136 3131 3125 3121 3116 3110 3102 3095 3086 3075 3064 3054 3047 3039 3032 3026 3021 3015 3008 3002 2996 2992 2989 2986 2983 2980 2977 2974 2970 2966 2963 2960 2958 2958
Wind_Speed
4 3 2 6 8 11 16 18 20 23 21 24 35 16 13 14 16 17 18 19 18 20 24 29 35 40 45 46 45 42 39 38 40 42 39 36 34 33 31 31 32 33 36 36
3 7 8 8 10 14 18 18 23 17 25 33 23 15 15 15 16 15 16 18 23 28 35 43 47 52 56 53 48 46 37 37 39 38 39 40 39 36 34 33 33 34 35 36
6 7 7 9 13 16 22 19 28 32 36 25 12 14 14 16 13 13 12 20 31 46 55 58 61 66 59 52 47 39 39 36 37 40 40 42 43 42 38 35 35 34 35 36
5 9 9 10 16 22 23 28 31 35 24 6 12 5 17 20 17 20 26 34 45 57 66 69 70 64 50 47 39 40 41 40 40 40 40 42 44 44 42 42 40 38 38 39
7 7 10 18 22 30 22 32 36 27 11 8 10 8 7 14 19 30 37 50 60 65 65 57 44 44 47 45 43 41 37 34 35 37 38 41 44 46 45 46 44 43 43 44
10 9 11 16 22 28 30 33 17 13 6 3 6 6 7 14 29 42 53 60 55 51 45 40 43 46 44 39 38 39 41 38 37 37 38 39 42 44 45 46 47 47 47 46
10 9 12 10 22 18 26 33 10 5 4 3 3 17 6 13 32 46 53 48 44 43 42 42 46 46 42 40 39 40 41 41 41 42 42 42 44 46 48 49 49 48 48 48
12 7 15 18 23 23 21 23 5 5 4 12 23 2 5 13 34 46 41 45 46 48 48 46 46 45 45 46 47 47 46 46 43 43 43 43 44 46 47 48 47 47 48 48
9 7 16 16 22 17 15 20 12 10 9 5 4 5 14 22 38 48 44 48 51 54 51 48 48 49 51 50 50 52 53 53 52 51 51 52 53 53 54 54 54 55 53 53
13 9 9 17 19 17 18 19 11 14 6 6 6 6 12 32 51 49 48 48 54 54 51 52 53 54 54 55 57 56 53 52 51 49 47 46 45 44 43 44 44 42 41 39
15 10 11 19 12 16 20 21 15 11 4 3 5 9 23 31 48 50 50 49 51 52 53 56 58 61 63 62 54 50 47 45 45 44 43 42 41 40 39 39 38 38 36 36
15 8 15 15 15 16 17 20 20 8 5 10 11 14 18 50 43 49 50 52 53 53 58 61 64 65 68 59 53 50 47 48 43 42 41 38 36 36 36 35 33 32 32 32
14 11 10 9 11 12 20 24 20 16 8 8 6 17 47 42 45 44 50 51 51 56 60 63 65 68 63 55 53 50 50 48 46 43 40 38 36 34 32 30 27 27 27 29
13 10 9 7 19 23 20 21 19 15 7 14 25 42 43 44 49 51 52 51 55 60 63 67 69 65 56 53 53 51 48 45 39 41 40 36 30 29 26 25 25 22 18 16
12 10 14 18 19 16 16 19 14 16 18 16 39 41 36 47 51 52 51 54 59 63 67 69 68 60 54 51 51 51 51 43 40 41 33 32 32 30 29 29 29 30 29 25
11 10 19 19 11 14 17 9 8 19 26 33 31 35 42 48 48 49 51 56 62 65 66 70 65 56 50 53 55 57 47 37 36 38 37 35 35 35 35 34 33 30 27 23
12 16 20 6 13 16 2 6 11 25 28 27 28 36 48 48 49 49 55 59 63 65 66 68 60 52 50 52 51 53 46 46 45 39 41 39 34 30 25 27 28 26 24 19
13 17 13 9 12 3 3 12 14 26 28 17 26 42 42 44 47 46 54 58 60 63 66 66 57 48 46 49 45 46 47 46 48 42 39 37 35 31 28 24 26 28 26 20
14 17 11 6 12 11 7 9 21 32 25 23 37 40 42 45 48 45 50 54 59 61 63 60 52 44 42 47 45 45 51 48 42 40 41 41 34 29 27 27 26 28 33 28
12 17 12 10 5 3 8 15 22 22 12 34 36 39 44 48 53 54 56 58 59 59 60 56 50 42 39 40 47 50 51 48 43 43 43 42 31 31 32 29 24 29 30 27
15 14 10 12 5 7 14 20 23 16 23 32 35 37 40 43 44 51 54 56 57 59 58 53 48 40 39 39 48 48 49 43 40 39 38 38 33 36 35 31 26 27 26 29
11 9 7 9 4 5 21 23 20 26 29 31 33 36 40 41 44 48 52 55 57 58 52 48 48 42 38 38 46 47 48 40 40 36 35 39 43 44 46 46 53 53 50 51
8 11 11 8 13 18 21 19 20 27 29 29 32 34 38 41 45 49 53 55 55 56 50 46 45 39 38 37 43 48 44 39 41 39 40 45 48 50 49 46 46 46 45 45
14 15 14 15 17 18 17 15 20 24 27 26 29 33 36 40 45 48 51 53 54 52 48 45 42 35 36 38 41 43 36 34 44 42 43 46 43 45 43 45 44 44 45 44
18 17 17 18 17 17 13 16 20 21 26 26 26 30 33 37 41 46 50 51 53 49 45 43 40 34 33 37 40 38 31 35 33 29 35 39 39 40 42 44 45 45 45 42
15 16 16 17 17 14 15 15 19 21 23 25 27 27 31 37 41 44 47 49 52 45 41 40 35 29 29 32 37 33 28 28 27 33 34 36 36 37 39 41 42 44 43 42
Wind_Direction
75 116 23 26 17 360 340 330 323 324 315 314 315 294 255 258 260 255 261 273 292 313 324 321 326 326 325 323 320 317 314 314 315 319 315 308 303 295 287 280 281 282 283 284
34 9 18 359 360 338 328 323 329 329 312 315 304 269 255 255 262 271 286 301 315 315 321 323 320 319 319 320 311 306 305 305 308 309 307 306 305 304 298 291 286 287 288 289
20 19 0 350 334 323 337 331 330 319 314 314 265 253 247 254 263 271 299 320 323 330 329 325 324 328 328 326 320 305 296 290 296 299 299 302 305 302 297 294 294 288 287 288
6 0 346 341 336 341 344 335 328 317 313 269 238 280 231 262 273 302 305 311 321 328 329 327 328 326 326 326 324 323 308 297 293 295 295 299 303 303 299 298 297 294 294 294
356 344 341 346 351 346 340 341 328 317 317 266 234 259 305 281 301 317 329 334 332 327 326 329 332 334 330 325 320 320 322 306 299 296 293 291 293 296 296 296 298 297 297 296
359 354 354 348 345 344 339 342 329 311 323 238 208 359 7 3 355 346 340 337 339 341 343 343 339 337 332 329 326 325 323 319 316 310 306 302 298 297 296 296 296 296 295 293
354 337 340 335 340 347 345 2 339 358 345 272 270 325 277 343 349 346 342 340 345 348 345 339 338 336 336 335 331 325 320 317 314 309 304 301 298 296 294 293 292 292 290 289
352 324 335 337 346 344 358 11 53 290 305 299 309 322 291 338 338 331 334 337 341 342 340 338 337 337 334 329 323 319 317 314 312 308 305 301 297 294 291 289 288 286 284 284
344 307 318 330 336 352 350 7 357 298 280 296 334 317 333 321 325 336 338 336 339 341 340 338 336 333 330 327 325 323 318 313 308 304 300 297 294 291 289 288 285 282 280 279
339 316 314 330 331 341 356 357 347 347 343 318 321 317 321 331 339 338 339 339 338 339 339 337 334 333 332 332 328 322 318 316 314 311 308 306 304 301 298 297 295 290 287 283
341 329 325 329 330 338 343 354 357 342 286 265 304 310 325 327 339 336 338 340 336 337 338 337 338 339 338 334 334 332 330 327 323 320 317 312 307 304 302 299 296 294 290 288
345 318 324 322 318 324 331 346 354 21 332 278 276 285 331 335 335 337 340 342 337 341 341 341 341 339 339 339 338 334 336 334 332 327 320 314 312 308 303 300 296 297 287 290
347 335 332 324 318 327 330 342 345 346 323 274 314 291 330 337 336 341 345 340 341 342 343 342 342 341 342 341 337 337 337 337 333 330 327 323 321 319 316 314 310 303 294 288
343 333 333 300 299 305 316 331 332 336 334 305 308 317 339 338 341 345 347 344 344 345 344 345 343 345 345 343 342 344 344 343 342 340 339 335 333 332 329 326 322 320 316 316
338 319 322 320 308 308 317 319 325 328 335 329 326 326 338 339 338 340 347 345 347 346 347 344 346 347 347 348 348 346 345 344 344 341 342 342 339 334 326 319 312 305 299 293
328 319 326 324 312 313 308 315 337 329 342 333 333 336 338 340 339 348 349 349 348 347 347 344 349 348 351 351 353 346 347 348 344 356 355 341 330 325 323 321 320 324 322 311
325 331 335 312 322 322 317 343 340 339 341 339 335 336 341 341 346 353 351 350 346 346 347 348 351 351 355 357 359 1 5 2 354 348 346 345 344 344 354 355 351 347 342 336
325 334 334 312 338 342 321 333 334 337 349 331 332 338 337 340 342 353 354 347 346 347 348 352 353 354 358 358 0 5 358 353 353 359 4 9 7 7 7 14 12 17 34 50
325 332 334 315 314 285 290 337 341 336 353 345 338 342 343 344 345 359 352 349 348 349 350 352 355 354 355 0 356 0 356 2 8 12 11 14 17 26 37 39 34 61 61 70
325 328 330 323 319 286 310 332 336 330 337 342 337 344 345 347 346 349 350 350 348 351 352 356 358 355 356 359 359 359 3 8 15 16 17 19 28 42 44 43 49 67 57 63
327 324 318 323 298 275 307 325 337 343 328 338 339 345 345 345 343 342 347 347 349 354 354 358 4 2 2 2 1 4 5 14 18 19 20 26 44 46 50 60 65 59 62 74
313 317 326 332 303 315 321 330 334 327 334 337 340 345 342 344 344 346 347 347 352 355 356 358 0 3 3 8 7 7 11 18 23 27 32 56 62 62 69 76 78 82 82 87
301 306 306 303 300 309 318 322 323 328 334 339 340 343 341 344 345 348 346 349 354 356 358 359 2 4 7 17 10 10 14 22 40 47 57 66 67 69 72 78 80 81 80 82
305 308 310 316 323 322 323 319 320 326 333 339 339 339 344 343 346 346 347 349 355 356 0 0 4 8 12 21 14 13 22 49 67 65 70 76 73 79 80 79 82 80 80 82
302 305 313 317 321 331 336 326 320 328 333 335 334 337 345 344 348 346 348 349 355 358 360 0 2 9 19 22 16 20 41 71 68 73 75 78 78 80 83 83 82 82 82 81
304 305 313 317 326 337 344 333 324 330 333 334 335 344 353 345 346 348 349 351 354 357 0 3 4 11 23 22 18 31 60 70 75 78 78 78 79 80 82 83 84 83 83 85